Time,TemperatureF,DewpointF,PressureIn,WindDirection,WindDirectionDegrees,WindSpeedMPH,WindSpeedGustMPH,Humidity,HourlyPrecipIn,Conditions,Clouds,dailyrainin,SoftwareType,DateUTC
2013-03-11 00:00:00,46.8,6.7,29.09,South,180,2.2,3.6,19,0.00,,---,0.00,VWS V13.01,2013-03-11 04:00:00,
2013-03-11 00:02:00,46.8,6.7,29.09,South,180,2.7,3.6,19,0.00,,---,0.00,VWS V13.01,2013-03-11 04:02:00,
2013-03-11 00:07:00,46.4,6.4,29.06,South,180,0.0,0.0,19,0.00,,---,0.00,VWS V13.01,2013-03-11 04:07:00,
2013-03-11 00:13:00,46.4,6.4,29.06,South,180,2.2,3.6,19,0.00,,---,0.00,VWS V13.01,2013-03-11 04:13:00,
2013-03-11 00:18:00,46.2,7.4,29.06,South,180,2.7,3.6,20,0.00,,---,0.00,VWS V13.01,2013-03-11 04:18:00,
2013-03-11 00:23:00,46.2,7.4,29.06,South,180,2.7,3.1,20,0.00,,---,0.00,VWS V13.01,2013-03-11 04:23:00,
2013-03-11 00:29:00,46.6,6.5,29.06,South,180,0.0,4.5,19,0.00,,---,0.00,VWS V13.01,2013-03-11 04:29:00,
2013-03-11 00:34:00,46.2,7.4,29.06,South,180,0.0,4.5,20,0.00,,---,0.00,VWS V13.01,2013-03-11 04:34:00,
2013-03-11 00:39:00,46.9,6.8,29.06,South,180,0.0,4.5,19,0.00,,---,0.00,VWS V13.01,2013-03-11 04:39:00,
2013-03-11 00:44:00,46.9,6.8,29.06,South,180,2.7,2.7,19,0.00,,---,0.00,VWS V13.01,2013-03-11 04:44:00,
2013-03-11 00:50:00,46.4,6.4,29.06,South,180,3.1,3.1,19,0.00,,---,0.00,VWS V13.01,2013-03-11 04:50:00,
2013-03-11 00:55:00,45.7,6.9,29.06,South,180,2.7,3.1,20,0.00,,---,0.00,VWS V13.01,2013-03-11 04:55:00,
2013-03-11 01:00:00,45.7,6.9,29.06,South,180,3.1,3.1,20,0.00,,---,0.00,VWS V13.01,2013-03-11 05:00:00,
2013-03-11 01:14:00,44.8,6.2,29.06,South,180,2.7,2.7,20,0.00,,---,0.00,VWS V13.01,2013-03-11 05:14:00,
2013-03-11 01:20:00,44.4,5.9,29.06,South,180,0.0,2.7,20,0.00,,---,0.00,VWS V13.01,2013-03-11 05:20:00,
2013-03-11 01:25:00,44.2,5.7,29.06,South,180,2.2,2.7,20,0.00,,---,0.00,VWS V13.01,2013-03-11 05:25:00,
2013-03-11 01:30:00,44.8,6.2,29.06,South,180,0.0,2.7,20,0.00,,---,0.00,VWS V13.01,2013-03-11 05:30:00,
2013-03-11 01:35:00,44.8,6.2,29.06,South,180,0.0,2.7,20,0.00,,---,0.00,VWS V13.01,2013-03-11 05:35:00,
2013-03-11 01:40:00,44.2,5.7,29.06,South,180,4.0,4.0,20,0.00,,---,0.00,VWS V13.01,2013-03-11 05:40:00,
2013-03-11 01:45:00,44.6,6.0,29.06,South,180,0.0,3.6,20,0.00,,---,0.00,VWS V13.01,2013-03-11 05:45:00,
2013-03-11 01:51:00,44.4,5.9,29.06,South,180,3.1,3.6,20,0.00,,---,0.00,VWS V13.01,2013-03-11 05:51:00,
2013-03-11 01:56:00,44.4,5.9,29.06,South,180,2.2,3.6,20,0.00,,---,0.00,VWS V13.01,2013-03-11 05:56:00,
2013-03-11 02:01:00,43.9,5.4,29.06,South,180,0.0,4.0,20,0.00,,---,0.00,VWS V13.01,2013-03-11 06:01:00,
2013-03-11 02:06:00,43.5,5.1,29.06,South,180,0.0,0.0,20,0.00,,---,0.00,VWS V13.01,2013-03-11 06:06:00,
2013-03-11 02:11:00,43.9,5.4,29.06,South,180,0.0,0.0,20,0.00,,---,0.00,VWS V13.01,2013-03-11 06:11:00,
2013-03-11 02:16:00,43.7,5.3,29.06,South,180,0.0,0.0,20,0.00,,---,0.00,VWS V13.01,2013-03-11 06:16:00,
2013-03-11 02:22:00,44.2,5.7,29.06,South,180,2.2,4.0,20,0.00,,---,0.00,VWS V13.01,2013-03-11 06:22:00,
2013-03-11 02:27:00,43.7,5.3,29.06,South,180,0.0,0.0,20,0.00,,---,0.00,VWS V13.01,2013-03-11 06:27:00,
2013-03-11 02:32:00,43.9,5.4,29.06,South,180,0.0,3.1,20,0.00,,---,0.00,VWS V13.01,2013-03-11 06:32:00,
2013-03-11 02:37:00,43.7,5.3,29.03,South,180,0.0,4.0,20,0.00,,---,0.00,VWS V13.01,2013-03-11 06:37:00,
2013-03-11 02:43:00,43.9,5.4,29.03,South,180,2.7,3.1,20,0.00,,---,0.00,VWS V13.01,2013-03-11 06:43:00,
2013-03-11 02:48:00,44.1,5.6,29.03,South,180,4.0,4.9,20,0.00,,---,0.00,VWS V13.01,2013-03-11 06:48:00,
2013-03-11 02:53:00,43.9,5.4,29.03,South,180,2.7,4.9,20,0.00,,---,0.00,VWS V13.01,2013-03-11 06:53:00,
2013-03-11 02:59:00,43.9,5.4,29.03,South,180,2.7,4.9,20,0.00,,---,0.00,VWS V13.01,2013-03-11 06:59:00,
2013-03-11 03:04:00,43.9,5.4,29.03,South,180,0.0,3.6,20,0.00,,---,0.00,VWS V13.01,2013-03-11 07:04:00,
2013-03-11 03:09:00,43.7,5.3,29.03,South,180,0.0,3.6,20,0.00,,---,0.00,VWS V13.01,2013-03-11 07:09:00,
2013-03-11 03:15:00,43.5,5.1,29.03,South,180,0.0,3.6,20,0.00,,---,0.00,VWS V13.01,2013-03-11 07:15:00,
2013-03-11 03:20:00,43.5,5.1,29.03,South,180,3.1,3.6,20,0.00,,---,0.00,VWS V13.01,2013-03-11 07:20:00,
2013-03-11 03:25:00,44.1,5.6,29.03,South,180,0.0,0.0,20,0.00,,---,0.00,VWS V13.01,2013-03-11 07:25:00,
2013-03-11 03:30:00,44.8,6.2,29.03,South,180,0.0,0.0,20,0.00,,---,0.00,VWS V13.01,2013-03-11 07:30:00,
2013-03-11 03:36:00,44.8,6.2,29.03,South,180,2.7,3.6,20,0.00,,---,0.00,VWS V13.01,2013-03-11 07:36:00,
2013-03-11 03:42:00,45.1,6.5,29.03,South,180,2.7,3.6,20,0.00,,---,0.00,VWS V13.01,2013-03-11 07:42:00,
2013-03-11 03:47:00,45.0,6.3,29.03,South,180,3.6,4.0,20,0.00,,---,0.00,VWS V13.01,2013-03-11 07:47:00,
2013-03-11 03:52:00,45.1,6.5,29.00,South,180,3.6,4.0,20,0.00,,---,0.00,VWS V13.01,2013-03-11 07:52:00,
2013-03-11 03:57:00,45.1,6.5,29.00,South,180,0.0,4.0,20,0.00,,---,0.00,VWS V13.01,2013-03-11 07:57:00,
2013-03-11 04:02:00,45.1,6.5,29.00,South,180,2.2,2.2,20,0.00,,---,0.00,VWS V13.01,2013-03-11 08:02:00,
2013-03-11 04:08:00,44.8,6.2,29.00,South,180,0.0,2.2,20,0.00,,---,0.00,VWS V13.01,2013-03-11 08:08:00,
2013-03-11 04:13:00,44.8,6.2,29.00,South,180,2.7,3.6,20,0.00,,---,0.00,VWS V13.01,2013-03-11 08:13:00,
2013-03-11 04:18:00,44.8,6.2,29.00,South,180,2.2,3.6,20,0.00,,---,0.00,VWS V13.01,2013-03-11 08:18:00,
2013-03-11 04:23:00,45.1,6.5,29.00,South,180,3.1,4.0,20,0.00,,---,0.00,VWS V13.01,2013-03-11 08:23:00,
2013-03-11 04:29:00,45.1,6.5,29.00,South,180,3.1,4.0,20,0.00,,---,0.00,VWS V13.01,2013-03-11 08:29:00,
2013-03-11 04:34:00,44.4,5.9,29.00,South,180,2.7,4.0,20,0.00,,---,0.00,VWS V13.01,2013-03-11 08:34:00,
2013-03-11 04:39:00,44.6,6.0,29.00,South,180,0.0,4.0,20,0.00,,---,0.00,VWS V13.01,2013-03-11 08:39:00,
2013-03-11 04:44:00,44.1,5.6,29.00,South,180,2.7,2.7,20,0.00,,---,0.00,VWS V13.01,2013-03-11 08:44:00,
2013-03-11 04:50:00,44.1,5.6,29.00,South,180,4.0,4.0,20,0.00,,---,0.00,VWS V13.01,2013-03-11 08:50:00,
2013-03-11 04:55:00,43.5,5.1,28.97,South,180,2.7,4.0,20,0.00,,---,0.00,VWS V13.01,2013-03-11 08:55:00,
2013-03-11 05:00:00,43.2,4.8,28.97,South,180,3.1,4.0,20,0.00,,---,0.00,VWS V13.01,2013-03-11 09:00:00,
2013-03-11 05:05:00,43.3,5.0,28.97,South,180,0.0,2.7,20,0.00,,---,0.00,VWS V13.01,2013-03-11 09:05:00,
2013-03-11 05:10:00,44.1,5.6,28.97,South,180,0.0,3.6,20,0.00,,---,0.00,VWS V13.01,2013-03-11 09:10:00,
2013-03-11 05:17:00,43.7,5.3,28.97,South,180,0.0,3.6,20,0.00,,---,0.00,VWS V13.01,2013-03-11 09:17:00,
2013-03-11 05:22:00,43.5,5.1,28.97,South,180,0.0,3.6,20,0.00,,---,0.00,VWS V13.01,2013-03-11 09:22:00,
2013-03-11 05:27:00,43.7,5.3,28.97,South,180,2.7,2.7,20,0.00,,---,0.00,VWS V13.01,2013-03-11 09:27:00,
2013-03-11 05:32:00,43.5,5.1,28.97,South,180,3.1,3.1,20,0.00,,---,0.00,VWS V13.01,2013-03-11 09:32:00,
2013-03-11 05:37:00,43.5,5.1,28.97,South,180,2.2,3.1,20,0.00,,---,0.00,VWS V13.01,2013-03-11 09:37:00,
2013-03-11 05:43:00,44.1,5.6,28.97,South,180,2.7,2.7,20,0.00,,---,0.00,VWS V13.01,2013-03-11 09:43:00,
2013-03-11 05:48:00,44.1,5.6,28.97,South,180,3.1,3.6,20,0.00,,---,0.00,VWS V13.01,2013-03-11 09:48:00,
2013-03-11 05:53:00,43.9,5.4,28.97,South,180,3.6,4.0,20,0.00,,---,0.00,VWS V13.01,2013-03-11 09:53:00,
2013-03-11 05:59:00,43.7,5.3,28.97,South,180,2.2,4.0,20,0.00,,---,0.00,VWS V13.01,2013-03-11 09:59:00,
2013-03-11 06:04:00,43.7,5.3,28.97,South,180,0.0,0.0,20,0.00,,---,0.00,VWS V13.01,2013-03-11 10:04:00,
2013-03-11 06:09:00,43.7,5.3,28.97,South,180,0.0,3.6,20,0.00,,---,0.00,VWS V13.01,2013-03-11 10:09:00,
2013-03-11 06:14:00,43.7,5.3,28.97,WNW,292,2.7,4.0,20,0.00,,---,0.00,VWS V13.01,2013-03-11 10:14:00,
2013-03-11 06:19:00,44.2,5.7,28.97,WNW,292,2.7,4.0,20,0.00,,---,0.00,VWS V13.01,2013-03-11 10:19:00,
2013-03-11 06:24:00,44.6,6.0,28.97,WNW,292,0.0,2.7,20,0.00,,---,0.00,VWS V13.01,2013-03-11 10:24:00,
2013-03-11 06:29:00,44.2,5.7,28.97,WNW,292,0.0,2.7,20,0.00,,---,0.00,VWS V13.01,2013-03-11 10:29:00,
2013-03-11 06:35:00,44.6,6.0,28.97,WNW,292,3.1,4.0,20,0.00,,---,0.00,VWS V13.01,2013-03-11 10:35:00,
2013-03-11 06:40:00,43.9,5.4,28.97,WNW,292,2.2,4.0,20,0.00,,---,0.00,VWS V13.01,2013-03-11 10:40:00,
2013-03-11 06:45:00,43.7,5.3,28.97,WNW,292,3.6,4.0,20,0.00,,---,0.00,VWS V13.01,2013-03-11 10:45:00,
2013-03-11 06:52:00,43.2,7.9,28.97,WNW,292,0.0,4.0,23,0.00,,---,0.00,VWS V13.01,2013-03-11 10:52:00,
2013-03-11 06:58:00,43.0,7.7,28.97,WNW,292,0.0,4.0,23,0.00,,---,0.00,VWS V13.01,2013-03-11 10:58:00,
2013-03-11 07:03:00,43.9,8.5,28.97,WNW,292,2.7,2.7,23,0.00,,---,0.00,VWS V13.01,2013-03-11 11:03:00,
2013-03-11 07:08:00,43.7,8.3,28.97,WNW,292,3.1,3.1,23,0.00,,---,0.00,VWS V13.01,2013-03-11 11:08:00,
2013-03-11 07:13:00,44.1,8.6,28.97,WNW,292,2.2,3.1,23,0.00,,---,0.00,VWS V13.01,2013-03-11 11:13:00,
2013-03-11 07:18:00,44.6,8.1,28.97,WNW,292,3.6,4.0,22,0.00,,---,0.00,VWS V13.01,2013-03-11 11:18:00,
2013-03-11 07:24:00,44.2,8.8,28.97,WNW,292,2.7,2.7,23,0.00,,---,0.00,VWS V13.01,2013-03-11 11:24:00,
2013-03-11 07:29:00,44.6,8.1,28.97,WNW,292,3.1,4.5,22,0.00,,---,0.00,VWS V13.01,2013-03-11 11:29:00,
2013-03-11 07:34:00,44.4,8.9,28.97,WNW,292,0.0,4.5,23,0.00,,---,0.00,VWS V13.01,2013-03-11 11:34:00,
2013-03-11 07:40:00,44.2,8.8,28.97,WNW,292,0.0,4.5,23,0.00,,---,0.00,VWS V13.01,2013-03-11 11:40:00,
2013-03-11 07:45:00,44.2,8.8,28.97,WNW,292,0.0,3.1,23,0.00,,---,0.00,VWS V13.01,2013-03-11 11:45:00,
2013-03-11 07:50:00,44.1,8.6,28.97,WNW,292,3.1,3.1,23,0.00,,---,0.00,VWS V13.01,2013-03-11 11:50:00,
2013-03-11 07:55:00,44.2,8.8,28.97,WNW,292,3.6,3.6,23,0.00,,---,0.00,VWS V13.01,2013-03-11 11:55:00,
2013-03-11 08:00:00,44.6,8.1,28.97,WNW,292,3.1,3.6,22,0.00,,---,0.00,VWS V13.01,2013-03-11 12:00:00,
2013-03-11 08:06:00,44.6,8.1,28.97,WNW,292,0.0,3.1,22,0.00,,---,0.00,VWS V13.01,2013-03-11 12:06:00,
2013-03-11 08:11:00,44.6,8.1,28.97,WNW,292,0.0,4.0,22,0.00,,---,0.00,VWS V13.01,2013-03-11 12:11:00,
2013-03-11 08:16:00,44.8,8.3,28.97,WNW,292,3.6,4.0,22,0.00,,---,0.00,VWS V13.01,2013-03-11 12:16:00,
2013-03-11 08:22:00,44.8,11.1,28.97,WNW,292,2.7,4.0,25,0.00,,---,0.00,VWS V13.01,2013-03-11 12:22:00,
2013-03-11 08:27:00,45.0,8.4,28.97,WNW,292,0.0,3.1,22,0.00,,---,0.00,VWS V13.01,2013-03-11 12:27:00,
2013-03-11 08:32:00,44.8,11.1,28.97,WNW,292,0.0,3.1,25,0.00,,---,0.00,VWS V13.01,2013-03-11 12:32:00,
2013-03-11 08:37:00,45.3,11.6,28.97,WNW,292,4.0,4.0,25,0.00,,---,0.00,VWS V13.01,2013-03-11 12:37:00,
2013-03-11 08:43:00,45.3,11.6,28.97,WNW,292,0.0,2.2,25,0.00,,---,0.00,VWS V13.01,2013-03-11 12:43:00,
2013-03-11 08:48:00,45.3,11.6,28.97,WNW,292,0.0,2.2,25,0.00,,---,0.00,VWS V13.01,2013-03-11 12:48:00,
2013-03-11 08:53:00,45.3,11.6,29.00,WNW,292,0.0,2.2,25,0.00,,---,0.00,VWS V13.01,2013-03-11 12:53:00,
2013-03-11 08:58:00,45.9,9.2,29.00,WNW,292,0.0,2.2,22,0.00,,---,0.00,VWS V13.01,2013-03-11 12:58:00,
2013-03-11 09:03:00,46.0,12.2,29.00,WNW,292,0.0,0.0,25,0.00,,---,0.00,VWS V13.01,2013-03-11 13:03:00,
2013-03-11 09:09:00,46.2,12.4,28.97,WNW,292,0.0,0.0,25,0.00,,---,0.00,VWS V13.01,2013-03-11 13:09:00,
2013-03-11 09:14:00,46.8,9.9,28.97,WNW,292,0.0,0.0,22,0.00,,---,0.00,VWS V13.01,2013-03-11 13:14:00,
2013-03-11 09:19:00,46.9,10.1,28.97,WNW,292,0.0,0.0,22,0.00,,---,0.00,VWS V13.01,2013-03-11 13:19:00,
2013-03-11 09:24:00,46.9,10.1,28.97,WNW,292,0.0,0.0,22,0.00,,---,0.00,VWS V13.01,2013-03-11 13:24:00,
2013-03-11 09:29:00,47.3,10.4,28.97,WNW,292,0.0,0.0,22,0.00,,---,0.00,VWS V13.01,2013-03-11 13:29:00,
2013-03-11 09:34:00,47.3,10.4,28.97,WNW,292,0.0,0.0,22,0.00,,---,0.00,VWS V13.01,2013-03-11 13:34:00,
2013-03-11 09:40:00,47.5,10.6,29.00,WNW,292,0.0,0.0,22,0.00,,---,0.00,VWS V13.01,2013-03-11 13:40:00,
2013-03-11 09:45:00,47.5,10.6,29.00,WNW,292,0.0,0.0,22,0.00,,---,0.00,VWS V13.01,2013-03-11 13:45:00,
2013-03-11 09:50:00,47.7,10.7,29.00,WNW,292,0.0,0.0,22,0.00,,---,0.00,VWS V13.01,2013-03-11 13:50:00,
2013-03-11 09:55:00,48.0,11.0,29.00,WNW,292,0.0,0.0,22,0.00,,---,0.00,VWS V13.01,2013-03-11 13:55:00,
2013-03-11 10:00:00,48.4,10.3,29.00,WNW,292,0.0,0.0,21,0.00,,---,0.00,VWS V13.01,2013-03-11 14:00:00,
2013-03-11 10:06:00,48.9,10.7,28.97,WNW,292,0.0,0.0,21,0.00,,---,0.00,VWS V13.01,2013-03-11 14:06:00,
2013-03-11 10:11:00,49.1,10.9,28.97,WNW,292,0.0,0.0,21,0.00,,---,0.00,VWS V13.01,2013-03-11 14:11:00,
2013-03-11 10:17:00,49.1,10.9,28.97,WNW,292,0.0,0.0,21,0.00,,---,0.00,VWS V13.01,2013-03-11 14:17:00,
2013-03-11 10:22:00,50.2,11.8,28.97,WNW,292,0.0,0.0,21,0.00,,---,0.00,VWS V13.01,2013-03-11 14:22:00,
2013-03-11 10:27:00,50.4,11.9,28.97,WNW,292,0.0,0.0,21,0.00,,---,0.00,VWS V13.01,2013-03-11 14:27:00,
2013-03-11 10:33:00,50.5,12.1,28.97,WNW,292,0.0,0.0,21,0.00,,---,0.00,VWS V13.01,2013-03-11 14:33:00,
2013-03-11 10:38:00,50.9,12.4,29.00,WNW,292,0.0,0.0,21,0.00,,---,0.00,VWS V13.01,2013-03-11 14:38:00,
2013-03-11 10:43:00,51.1,12.5,29.00,WNW,292,2.2,2.7,21,0.00,,---,0.00,VWS V13.01,2013-03-11 14:43:00,
2013-03-11 10:48:00,51.1,12.5,29.00,WNW,292,0.0,3.1,21,0.00,,---,0.00,VWS V13.01,2013-03-11 14:48:00,
2013-03-11 10:54:00,51.4,12.8,29.00,WNW,292,0.0,3.1,21,0.00,,---,0.00,VWS V13.01,2013-03-11 14:54:00,
2013-03-11 10:59:00,51.8,13.1,29.00,WNW,292,0.0,3.1,21,0.00,,---,0.00,VWS V13.01,2013-03-11 14:59:00,
2013-03-11 11:04:00,52.2,13.4,29.00,WNW,292,0.0,0.0,21,0.00,,---,0.00,VWS V13.01,2013-03-11 15:04:00,
2013-03-11 11:09:00,52.2,13.4,29.00,WNW,292,0.0,2.7,21,0.00,,---,0.00,VWS V13.01,2013-03-11 15:09:00,
2013-03-11 11:14:00,52.2,13.4,29.00,WNW,292,0.0,2.7,21,0.00,,---,0.00,VWS V13.01,2013-03-11 15:14:00,
2013-03-11 11:19:00,52.2,13.4,29.00,West,270,0.0,2.7,21,0.00,,---,0.00,VWS V13.01,2013-03-11 15:19:00,
2013-03-11 11:25:00,53.1,14.2,29.00,West,270,0.0,0.0,21,0.00,,---,0.00,VWS V13.01,2013-03-11 15:25:00,
2013-03-11 11:30:00,54.0,13.8,29.00,West,270,0.0,0.0,20,0.00,,---,0.00,VWS V13.01,2013-03-11 15:30:00,
2013-03-11 11:35:00,54.0,13.8,29.00,West,270,0.0,2.7,20,0.00,,---,0.00,VWS V13.01,2013-03-11 15:35:00,
2013-03-11 11:40:00,54.9,14.6,29.00,West,270,2.2,3.1,20,0.00,,---,0.00,VWS V13.01,2013-03-11 15:40:00,
2013-03-11 11:46:00,55.2,14.9,29.00,West,270,0.0,2.2,20,0.00,,---,0.00,VWS V13.01,2013-03-11 15:46:00,
2013-03-11 11:52:00,55.2,14.9,29.00,North,0,2.7,3.1,20,0.00,,---,0.00,VWS V13.01,2013-03-11 15:52:00,
2013-03-11 11:57:00,55.6,15.2,29.00,North,0,3.1,3.1,20,0.00,,---,0.00,VWS V13.01,2013-03-11 15:57:00,
2013-03-11 12:02:00,55.8,11.6,29.00,North,0,0.0,3.1,17,0.00,,---,0.00,VWS V13.01,2013-03-11 16:02:00,
2013-03-11 12:07:00,55.8,11.6,28.97,North,0,2.7,4.0,17,0.00,,---,0.00,VWS V13.01,2013-03-11 16:07:00,
2013-03-11 12:13:00,55.6,11.5,28.97,North,0,3.6,4.0,17,0.00,,---,0.00,VWS V13.01,2013-03-11 16:13:00,
2013-03-11 12:18:00,55.6,11.5,28.97,North,0,0.0,4.0,17,0.00,,---,0.00,VWS V13.01,2013-03-11 16:18:00,
2013-03-11 12:23:00,55.6,11.5,29.00,North,0,0.0,0.0,17,0.00,,---,0.00,VWS V13.01,2013-03-11 16:23:00,
2013-03-11 12:28:00,55.9,11.8,29.00,North,0,0.0,4.0,17,0.00,,---,0.00,VWS V13.01,2013-03-11 16:28:00,
2013-03-11 12:33:00,56.3,12.1,29.00,SE,135,5.4,5.4,17,0.00,,---,0.00,VWS V13.01,2013-03-11 16:33:00,
2013-03-11 12:39:00,56.1,11.9,28.97,SE,135,3.1,5.4,17,0.00,,---,0.00,VWS V13.01,2013-03-11 16:39:00,
2013-03-11 12:44:00,56.3,12.1,28.97,SE,135,0.0,0.0,17,0.00,,---,0.00,VWS V13.01,2013-03-11 16:44:00,
2013-03-11 12:49:00,56.3,12.1,28.97,SE,135,2.7,4.0,17,0.00,,---,0.00,VWS V13.01,2013-03-11 16:49:00,
2013-03-11 12:54:00,56.8,16.2,28.97,SE,135,0.0,4.9,20,0.00,,---,0.00,VWS V13.01,2013-03-11 16:54:00,
2013-03-11 12:59:00,57.6,15.6,28.97,SE,135,0.0,4.9,19,0.00,,---,0.00,VWS V13.01,2013-03-11 16:59:00,
2013-03-11 13:05:00,58.1,16.1,28.97,SE,135,4.0,4.0,19,0.00,,---,0.00,VWS V13.01,2013-03-11 17:05:00,
2013-03-11 13:10:00,57.7,15.8,28.94,SE,135,3.6,4.9,19,0.00,,---,0.00,VWS V13.01,2013-03-11 17:10:00,
2013-03-11 13:15:00,57.2,12.8,28.94,SE,135,3.1,5.8,17,0.00,,---,0.00,VWS V13.01,2013-03-11 17:15:00,
2013-03-11 13:20:00,57.0,12.7,28.94,SE,135,2.7,5.8,17,0.00,,---,0.00,VWS V13.01,2013-03-11 17:20:00,
2013-03-11 13:25:00,56.8,12.5,28.94,SE,135,3.6,5.4,17,0.00,,---,0.00,VWS V13.01,2013-03-11 17:25:00,
2013-03-11 13:31:00,56.7,12.4,28.94,WSW,248,4.0,7.2,17,0.00,,---,0.00,VWS V13.01,2013-03-11 17:31:00,
2013-03-11 13:36:00,56.7,12.4,28.94,South,180,0.0,7.2,17,0.00,,---,0.00,VWS V13.01,2013-03-11 17:36:00,
2013-03-11 13:42:00,56.7,12.4,28.94,SW,225,3.6,7.6,17,0.00,,---,0.00,VWS V13.01,2013-03-11 17:42:00,
2013-03-11 13:47:00,56.1,11.9,28.94,SSE,158,5.8,5.8,17,0.00,,---,0.00,VWS V13.01,2013-03-11 17:47:00,
2013-03-11 13:52:00,56.1,11.9,28.94,SSE,158,0.0,6.3,17,0.00,,---,0.00,VWS V13.01,2013-03-11 17:52:00,
2013-03-11 13:57:00,55.9,11.8,28.94,South,180,5.4,6.3,17,0.00,,---,0.00,VWS V13.01,2013-03-11 17:57:00,
2013-03-11 14:02:00,55.6,11.5,28.94,South,180,5.4,6.3,17,0.00,,---,0.00,VWS V13.01,2013-03-11 18:02:00,
2013-03-11 14:07:00,55.4,11.3,28.94,SSE,158,2.7,6.3,17,0.00,,---,0.00,VWS V13.01,2013-03-11 18:07:00,
2013-03-11 14:13:00,55.8,11.6,28.94,South,180,3.6,6.3,17,0.00,,---,0.00,VWS V13.01,2013-03-11 18:13:00,
2013-03-11 14:18:00,56.1,11.9,28.94,South,180,0.0,6.3,17,0.00,,---,0.00,VWS V13.01,2013-03-11 18:18:00,
2013-03-11 14:23:00,56.1,11.9,28.91,SSW,202,4.0,4.9,17,0.00,,---,0.00,VWS V13.01,2013-03-11 18:23:00,
2013-03-11 14:28:00,56.7,12.4,28.91,East,90,0.0,5.4,17,0.00,,---,0.00,VWS V13.01,2013-03-11 18:28:00,
2013-03-11 14:34:00,56.7,12.4,28.91,SE,135,3.1,5.4,17,0.00,,---,0.00,VWS V13.01,2013-03-11 18:34:00,
2013-03-11 14:39:00,56.8,12.5,28.91,SE,135,4.9,9.2,17,0.00,,---,0.00,VWS V13.01,2013-03-11 18:39:00,
2013-03-11 14:45:00,57.6,15.6,28.91,South,180,5.8,7.6,19,0.00,,---,0.00,VWS V13.01,2013-03-11 18:45:00,
2013-03-11 14:50:00,57.6,15.6,28.91,South,180,4.9,8.1,19,0.00,,---,0.00,VWS V13.01,2013-03-11 18:50:00,
2013-03-11 14:55:00,57.6,15.6,28.91,WSW,248,9.2,9.2,19,0.00,,---,0.00,VWS V13.01,2013-03-11 18:55:00,
2013-03-11 15:00:00,57.2,12.8,28.91,SSE,158,4.9,9.2,17,0.00,,---,0.00,VWS V13.01,2013-03-11 19:00:00,
2013-03-11 15:05:00,57.0,12.7,28.91,South,180,2.7,8.1,17,0.00,,---,0.00,VWS V13.01,2013-03-11 19:05:00,
2013-03-11 15:11:00,56.8,12.5,28.91,SE,135,4.0,8.1,17,0.00,,---,0.00,VWS V13.01,2013-03-11 19:11:00,
2013-03-11 15:16:00,56.7,12.4,28.91,South,180,3.6,8.1,17,0.00,,---,0.00,VWS V13.01,2013-03-11 19:16:00,
2013-03-11 15:22:00,56.5,12.2,28.91,SE,135,2.7,8.1,17,0.00,,---,0.00,VWS V13.01,2013-03-11 19:22:00,
2013-03-11 15:27:00,56.5,12.2,28.91,South,180,6.3,6.3,17,0.00,,---,0.00,VWS V13.01,2013-03-11 19:27:00,
2013-03-11 15:33:00,56.7,12.4,28.91,SE,135,0.0,6.7,17,0.00,,---,0.00,VWS V13.01,2013-03-11 19:33:00,
2013-03-11 15:38:00,56.7,12.4,28.91,SW,225,2.2,6.7,17,0.00,,---,0.00,VWS V13.01,2013-03-11 19:38:00,
2013-03-11 15:43:00,56.7,12.4,28.91,South,180,0.0,0.0,17,0.00,,---,0.00,VWS V13.01,2013-03-11 19:43:00,
2013-03-11 15:49:00,56.7,12.4,28.91,South,180,0.0,0.0,17,0.00,,---,0.00,VWS V13.01,2013-03-11 19:49:00,
2013-03-11 15:54:00,56.7,12.4,28.91,South,180,0.0,0.0,17,0.00,,---,0.00,VWS V13.01,2013-03-11 19:54:00,
2013-03-11 15:59:00,56.5,12.2,28.91,South,180,0.0,0.0,17,0.00,,---,0.00,VWS V13.01,2013-03-11 19:59:00,
2013-03-11 16:05:00,56.5,12.2,28.91,SSE,158,0.0,0.0,17,0.00,,---,0.00,VWS V13.01,2013-03-11 20:05:00,
2013-03-11 16:10:00,56.3,12.1,28.88,SE,135,0.0,0.0,17,0.00,,---,0.00,VWS V13.01,2013-03-11 20:10:00,
2013-03-11 16:15:00,56.3,12.1,28.88,South,180,0.0,0.0,17,0.00,,---,0.00,VWS V13.01,2013-03-11 20:15:00,
2013-03-11 16:20:00,56.3,12.1,28.88,South,180,0.0,0.0,17,0.00,,---,0.00,VWS V13.01,2013-03-11 20:20:00,
2013-03-11 16:25:00,56.3,12.1,28.88,South,180,0.0,0.0,17,0.00,,---,0.00,VWS V13.01,2013-03-11 20:25:00,
2013-03-11 16:30:00,55.9,11.8,28.88,South,180,0.0,0.0,17,0.00,,---,0.00,VWS V13.01,2013-03-11 20:30:00,
2013-03-11 16:36:00,55.9,11.8,28.88,ENE,68,0.0,0.0,17,0.00,,---,0.00,VWS V13.01,2013-03-11 20:36:00,
2013-03-11 16:41:00,55.8,11.6,28.88,SE,135,0.0,0.0,17,0.00,,---,0.00,VWS V13.01,2013-03-11 20:41:00,
2013-03-11 16:46:00,55.6,11.5,28.88,South,180,0.0,0.0,17,0.00,,---,0.00,VWS V13.01,2013-03-11 20:46:00,
2013-03-11 16:51:00,55.4,11.3,28.88,South,180,0.0,0.0,17,0.00,,---,0.00,VWS V13.01,2013-03-11 20:51:00,
2013-03-11 16:56:00,55.2,12.5,28.88,SE,135,0.0,0.0,18,0.00,,---,0.00,VWS V13.01,2013-03-11 20:56:00,
2013-03-11 17:02:00,55.2,12.5,28.88,South,180,0.0,0.0,18,0.00,,---,0.00,VWS V13.01,2013-03-11 21:02:00,
2013-03-11 17:07:00,54.9,14.6,28.85,South,180,0.0,0.0,20,0.00,,---,0.00,VWS V13.01,2013-03-11 21:07:00,
2013-03-11 17:12:00,54.7,14.4,28.85,ENE,68,0.0,0.0,20,0.00,,---,0.00,VWS V13.01,2013-03-11 21:12:00,
2013-03-11 17:17:00,54.7,14.4,28.85,SSE,158,0.0,0.0,20,0.00,,---,0.00,VWS V13.01,2013-03-11 21:17:00,
2013-03-11 17:22:00,54.5,14.3,28.88,South,180,0.0,0.0,20,0.00,,---,0.00,VWS V13.01,2013-03-11 21:22:00,
2013-03-11 17:27:00,54.5,17.5,28.88,NNE,22,0.0,0.0,23,0.00,,---,0.00,VWS V13.01,2013-03-11 21:27:00,
2013-03-11 17:33:00,54.3,17.3,28.88,NW,315,0.0,0.0,23,0.00,,---,0.00,VWS V13.01,2013-03-11 21:33:00,
2013-03-11 17:38:00,54.3,19.3,28.88,NW,315,0.0,0.0,25,0.00,,---,0.00,VWS V13.01,2013-03-11 21:38:00,
2013-03-11 17:44:00,54.3,20.2,28.88,South,180,0.0,0.0,26,0.00,,---,0.00,VWS V13.01,2013-03-11 21:44:00,
2013-03-11 17:49:00,54.3,20.2,28.88,South,180,0.0,0.0,26,0.00,,---,0.00,VWS V13.01,2013-03-11 21:49:00,
2013-03-11 17:54:00,54.3,21.1,28.88,SW,225,0.0,0.0,27,0.00,,---,0.00,VWS V13.01,2013-03-11 21:54:00,
2013-03-11 17:59:00,54.3,21.1,28.88,WSW,248,0.0,0.0,27,0.00,,---,0.00,VWS V13.01,2013-03-11 21:59:00,
2013-03-11 18:05:00,54.1,22.6,28.88,SW,225,0.0,0.0,29,0.00,,---,0.00,VWS V13.01,2013-03-11 22:05:00,
2013-03-11 18:10:00,54.0,23.2,28.91,West,270,0.0,0.0,30,0.00,,---,0.00,VWS V13.01,2013-03-11 22:10:00,
2013-03-11 18:15:00,54.0,24.0,28.91,West,270,0.0,0.0,31,0.00,,---,0.00,VWS V13.01,2013-03-11 22:15:00,
2013-03-11 18:20:00,53.8,25.4,28.91,West,270,0.0,0.0,33,0.00,,---,0.00,VWS V13.01,2013-03-11 22:20:00,
2013-03-11 18:25:00,53.8,25.4,28.88,SW,225,0.0,0.0,33,0.00,,---,0.00,VWS V13.01,2013-03-11 22:25:00,
2013-03-11 18:31:00,53.8,26.1,28.88,South,180,0.0,0.0,34,0.00,,---,0.00,VWS V13.01,2013-03-11 22:31:00,
2013-03-11 18:36:00,53.8,27.5,28.88,ESE,112,0.0,0.0,36,0.00,,---,0.00,VWS V13.01,2013-03-11 22:36:00,
2013-03-11 18:42:00,53.6,27.3,28.88,SE,135,0.0,0.0,36,0.00,,---,0.00,VWS V13.01,2013-03-11 22:42:00,
2013-03-11 18:47:00,53.6,27.3,28.88,South,180,0.0,0.0,36,0.00,,---,0.00,VWS V13.01,2013-03-11 22:47:00,
2013-03-11 18:52:00,53.6,28.0,28.88,South,180,0.0,0.0,37,0.00,,---,0.00,VWS V13.01,2013-03-11 22:52:00,
2013-03-11 18:57:00,53.6,28.0,28.88,South,180,0.0,0.0,37,0.00,,---,0.00,VWS V13.01,2013-03-11 22:57:00,
2013-03-11 19:02:00,53.6,28.0,28.88,SSE,158,0.0,0.0,37,0.00,,---,0.00,VWS V13.01,2013-03-11 23:02:00,
2013-03-11 19:07:00,53.6,28.6,28.88,South,180,0.0,0.0,38,0.00,,---,0.00,VWS V13.01,2013-03-11 23:07:00,
2013-03-11 19:12:00,53.6,28.6,28.88,ENE,68,0.0,4.0,38,0.00,,---,0.00,VWS V13.01,2013-03-11 23:12:00,
2013-03-11 19:17:00,53.6,28.6,28.88,North,0,0.0,4.0,38,0.00,,---,0.00,VWS V13.01,2013-03-11 23:17:00,
2013-03-11 19:22:00,53.6,28.6,28.88,SW,225,3.6,5.8,38,0.00,,---,0.00,VWS V13.01,2013-03-11 23:22:00,
2013-03-11 19:27:00,54.0,29.6,28.88,South,180,4.9,5.8,39,0.00,,---,0.00,VWS V13.01,2013-03-11 23:27:00,
2013-03-11 19:33:00,54.1,30.4,28.88,SW,225,5.4,6.7,40,0.00,,---,0.00,VWS V13.01,2013-03-11 23:33:00,
2013-03-11 19:38:00,54.1,30.4,28.88,South,180,3.6,6.7,40,0.00,,---,0.00,VWS V13.01,2013-03-11 23:38:00,
2013-03-11 19:43:00,54.1,30.4,28.88,South,180,3.6,4.0,40,0.00,,---,0.00,VWS V13.01,2013-03-11 23:43:00,
2013-03-11 19:49:00,54.3,30.5,28.88,South,180,0.0,6.3,40,0.00,,---,0.00,VWS V13.01,2013-03-11 23:49:00,
2013-03-11 19:54:00,54.3,30.5,28.88,South,180,3.6,6.3,40,0.00,,---,0.00,VWS V13.01,2013-03-11 23:54:00,
2013-03-11 19:59:00,54.3,30.5,28.88,South,180,0.0,6.3,40,0.00,,---,0.00,VWS V13.01,2013-03-11 23:59:00,
2013-03-11 20:04:00,54.3,30.5,28.88,South,180,0.0,0.0,40,0.00,,---,0.00,VWS V13.01,2013-03-12 00:04:00,
2013-03-11 20:10:00,54.1,30.4,28.88,South,180,0.0,0.0,40,0.00,,---,0.00,VWS V13.01,2013-03-12 00:10:00,
2013-03-11 20:15:00,54.1,31.0,28.88,South,180,0.0,0.0,41,0.00,,---,0.00,VWS V13.01,2013-03-12 00:15:00,
2013-03-11 20:20:00,54.0,30.8,28.88,South,180,0.0,0.0,41,0.00,,---,0.00,VWS V13.01,2013-03-12 00:20:00,
2013-03-11 20:25:00,54.0,32.0,28.85,South,180,0.0,0.0,43,0.00,,---,0.00,VWS V13.01,2013-03-12 00:25:00,
2013-03-11 20:30:00,53.8,31.8,28.85,SE,135,0.0,0.0,43,0.00,,---,0.00,VWS V13.01,2013-03-12 00:30:00,
2013-03-11 20:36:00,53.6,31.7,28.85,SE,135,0.0,0.0,43,0.00,,---,0.00,VWS V13.01,2013-03-12 00:36:00,
2013-03-11 20:41:00,53.6,31.7,28.85,SW,225,0.0,0.0,43,0.00,,---,0.00,VWS V13.01,2013-03-12 00:41:00,
2013-03-11 20:46:00,53.6,31.7,28.85,South,180,0.0,0.0,43,0.00,,---,0.00,VWS V13.01,2013-03-12 00:46:00,
2013-03-11 20:51:00,53.1,32.3,28.85,South,180,0.0,0.0,45,0.00,,---,0.00,VWS V13.01,2013-03-12 00:51:00,
2013-03-11 20:56:00,53.4,33.2,28.85,South,180,0.0,0.0,46,0.00,,---,0.00,VWS V13.01,2013-03-12 00:56:00,
2013-03-11 21:02:00,53.4,33.2,28.85,South,180,0.0,0.0,46,0.00,,---,0.00,VWS V13.01,2013-03-12 01:02:00,
2013-03-11 21:07:00,53.4,33.2,28.85,SSE,158,0.0,0.0,46,0.00,,---,0.00,VWS V13.01,2013-03-12 01:07:00,
2013-03-11 21:12:00,53.4,33.2,28.85,South,180,0.0,0.0,46,0.00,,---,0.00,VWS V13.01,2013-03-12 01:12:00,
2013-03-11 21:17:00,53.4,33.7,28.85,South,180,0.0,0.0,47,0.00,,---,0.00,VWS V13.01,2013-03-12 01:17:00,
2013-03-11 21:23:00,53.6,33.3,28.85,SE,135,0.0,0.0,46,0.00,,---,0.00,VWS V13.01,2013-03-12 01:23:00,
2013-03-11 21:28:00,53.8,33.5,28.85,South,180,0.0,0.0,46,0.00,,---,0.00,VWS V13.01,2013-03-12 01:28:00,
2013-03-11 21:33:00,53.8,33.5,28.85,SE,135,0.0,0.0,46,0.00,,---,0.00,VWS V13.01,2013-03-12 01:33:00,
2013-03-11 21:38:00,54.0,33.7,28.85,SE,135,0.0,0.0,46,0.00,,---,0.00,VWS V13.01,2013-03-12 01:38:00,
2013-03-11 21:43:00,54.0,33.7,28.85,South,180,0.0,0.0,46,0.00,,---,0.00,VWS V13.01,2013-03-12 01:43:00,
2013-03-11 21:48:00,54.0,33.7,28.85,SSE,158,0.0,0.0,46,0.00,,---,0.00,VWS V13.01,2013-03-12 01:48:00,
2013-03-11 21:54:00,54.1,33.8,28.85,SSE,158,0.0,0.0,46,0.00,,---,0.00,VWS V13.01,2013-03-12 01:54:00,
2013-03-11 21:59:00,54.0,33.7,28.85,South,180,0.0,0.0,46,0.00,,---,0.00,VWS V13.01,2013-03-12 01:59:00,
2013-03-11 22:04:00,54.0,33.7,28.85,South,180,0.0,0.0,46,0.00,,---,0.00,VWS V13.01,2013-03-12 02:04:00,
2013-03-11 22:10:00,54.0,33.7,28.85,South,180,0.0,0.0,46,0.00,,---,0.00,VWS V13.01,2013-03-12 02:10:00,
2013-03-11 22:15:00,54.1,33.8,28.85,SE,135,0.0,0.0,46,0.00,,---,0.00,VWS V13.01,2013-03-12 02:15:00,
2013-03-11 22:20:00,54.1,34.4,28.85,South,180,0.0,0.0,47,0.00,,---,0.00,VWS V13.01,2013-03-12 02:20:00,
2013-03-11 22:25:00,54.1,34.4,28.82,SSE,158,0.0,0.0,47,0.00,,---,0.00,VWS V13.01,2013-03-12 02:25:00,
2013-03-11 22:30:00,53.8,34.6,28.82,South,180,0.0,0.0,48,0.00,,---,0.00,VWS V13.01,2013-03-12 02:30:00,
2013-03-11 22:37:00,53.6,34.4,28.82,South,180,0.0,0.0,48,0.00,,---,0.00,VWS V13.01,2013-03-12 02:37:00,
2013-03-11 22:42:00,53.6,34.9,28.82,South,180,0.0,0.0,49,0.00,,---,0.00,VWS V13.01,2013-03-12 02:42:00,
2013-03-11 22:47:00,53.6,34.9,28.82,South,180,0.0,0.0,49,0.00,,---,0.00,VWS V13.01,2013-03-12 02:47:00,
2013-03-11 22:52:00,53.4,35.3,28.82,SSE,158,0.0,0.0,50,0.00,,---,0.00,VWS V13.01,2013-03-12 02:52:00,
2013-03-11 22:58:00,53.2,35.6,28.82,SW,225,0.0,0.0,51,0.00,,---,0.00,VWS V13.01,2013-03-12 02:58:00,
2013-03-11 23:03:00,53.2,35.6,28.82,West,270,0.0,0.0,51,0.00,,---,0.00,VWS V13.01,2013-03-12 03:03:00,
2013-03-11 23:08:00,53.4,35.8,28.79,WSW,248,0.0,0.0,51,0.00,,---,0.00,VWS V13.01,2013-03-12 03:08:00,
2013-03-11 23:14:00,53.4,35.8,28.79,SE,135,0.0,0.0,51,0.00,,---,0.00,VWS V13.01,2013-03-12 03:14:00,
2013-03-11 23:19:00,53.4,35.8,28.79,South,180,0.0,0.0,51,0.00,,---,0.00,VWS V13.01,2013-03-12 03:19:00,
2013-03-11 23:24:00,54.0,34.7,28.79,West,270,0.0,0.0,48,0.00,,---,0.00,VWS V13.01,2013-03-12 03:24:00,
2013-03-11 23:29:00,54.0,34.7,28.79,ENE,68,0.0,0.0,48,0.00,,---,0.00,VWS V13.01,2013-03-12 03:29:00,
2013-03-11 23:35:00,54.1,34.4,28.79,West,270,0.0,0.0,47,0.00,,---,0.00,VWS V13.01,2013-03-12 03:35:00,
2013-03-11 23:40:00,54.1,34.4,28.79,South,180,0.0,0.0,47,0.00,,---,0.00,VWS V13.01,2013-03-12 03:40:00,
2013-03-11 23:45:00,54.5,34.2,28.79,SSW,202,0.0,0.0,46,0.00,,---,0.00,VWS V13.01,2013-03-12 03:45:00,
2013-03-11 23:51:00,54.5,34.2,28.79,South,180,0.0,0.0,46,0.00,,---,0.00,VWS V13.01,2013-03-12 03:51:00,
2013-03-11 23:56:00,54.3,34.5,28.79,SSE,158,0.0,0.0,47,0.00,,---,0.00,VWS V13.01,2013-03-12 03:56:00,